User: anonymous   Login
Location: Betra
(48.4113°N, 8.6634°E)
Time: 03:35:22
(UTC+00:00)
Language:

Cosmos 2360 Rocket - Orbit

View from above orbital plane
View from above orbital plane
View from above satellite
View from above satellite

Ground track
Ground track

The orbit data is extracted from the following two-line orbital elements,

1 25407U 98045B   24200.57569438  .00000068  00000-0  58553-4 0  9993
2 25407  71.0122   1.3563 0009044 229.4770 130.5566 14.16013333342289
Epoch (UTC): 18 July 2024 13:48:59
Eccentricity: 0.0009044
inclination: 71.0122°
perigee height: 832 km
apogee height: 845 km
right ascension of ascending node: 1.3563°
argument of perigee: 229.4770°
revolutions per day: 14.16013333
mean anomaly at epoch: 130.5566°
orbit number at epoch: 34228

The dashed part of the orbit path shows where the satellite is in the earth's shadow,  

DLR